Location: Unspecified
(49.9820°N, 20.4363°E)
Time: 22:33:49
(UTC+02:00)

SR - All Passes

Search period start: 15 May 2026 00:00
Search period end: 25 May 2026 00:00
Orbit: 568 x 852 km, 66.7° (Epoch: 14 May)

Date Brightness Start Highest point End Pass type
(mag) Time Alt. Az. Time Alt. Az. Time Alt. Az.
15 May - 06:42:39 10° SSE 06:45:50 17° ESE 06:49:10 10° ENE daylight
15 May - 08:21:51 10° SW 08:26:45 83° NW 08:32:08 10° NE daylight
15 May - 10:05:11 10° W 10:09:18 24° NNW 10:13:41 10° NNE daylight
15 May - 11:50:16 10° NW 11:53:01 14° N 11:55:51 10° NNE daylight
15 May - 13:33:08 10° NNW 13:36:57 18° NNE 13:40:52 10° ENE daylight
15 May - 15:14:33 10° NNW 15:20:01 47° NE 15:25:36 10° ESE daylight
15 May - 16:56:25 10° NW 17:01:46 42° WSW 17:07:10 10° S daylight
16 May - 07:27:01 10° SSW 07:31:43 51° ESE 07:36:50 10° NE daylight
16 May - 09:09:01 10° WSW 09:13:38 36° NW 09:18:38 10° NNE daylight
16 May - 10:53:47 10° NW 10:56:58 16° NNW 11:00:17 10° NNE daylight
16 May - 12:37:51 10° NNW 12:40:58 15° NNE 12:44:10 10° NE daylight
16 May - 14:19:32 10° NNW 14:24:29 30° NE 14:29:32 10° E daylight
16 May - 16:01:03 10° NW 16:06:46 78° WSW 16:12:33 10° SSE daylight
16 May - 17:44:19 10° WNW 17:47:40 16° WSW 17:51:02 10° SW daylight
17 May - 06:32:58 10° SSE 06:36:56 25° ESE 06:41:10 10° NE daylight
17 May - 08:13:17 10° SW 08:18:11 61° NW 08:23:33 10° NNE daylight
17 May - 09:57:12 10° WNW 10:01:02 20° NNW 10:05:04 10° NNE daylight
17 May - 11:42:07 10° NNW 11:44:54 14° N 11:47:43 10° NNE daylight
17 May - 13:24:29 10° NNW 13:28:44 21° NNE 13:33:04 10° ENE daylight
17 May - 15:05:54 10° NNW 15:11:32 61° NE 15:17:16 10° SE daylight
17 May - 16:48:03 10° NW 16:53:01 31° WSW 16:57:59 10° S daylight
18 May - 05:40:32 10° SE 05:42:24 12° ESE 05:44:18 10° E daylight
18 May - 07:18:08 10° SSW 07:23:00 73° ESE 07:28:21 10° NE daylight
18 May - 09:00:51 10° W 09:05:16 29° NW 09:09:59 10° NNE daylight
18 May - 10:45:51 10° NW 10:48:49 15° N 10:51:52 10° NNE daylight
18 May - 12:29:19 10° NNW 12:32:48 16° NNE 12:36:22 10° NE daylight
18 May - 14:10:51 10° NNW 14:16:07 37° NE 14:21:28 10° ESE daylight
18 May - 15:52:31 10° NW 15:58:07 58° WSW 16:03:45 10° SSE daylight
18 May - 17:37:27 10° W 17:38:44 11° W 17:40:01 10° WSW daylight
19 May - 06:23:38 10° S 06:28:05 36° ESE 06:32:55 10° NE daylight
19 May - 08:04:53 10° WSW 08:09:42 46° NW 08:14:56 10° NNE daylight
19 May - 09:49:17 10° WNW 09:52:49 18° NNW 09:56:30 10° NNE daylight
19 May - 11:33:51 10° NNW 11:36:46 14° N 11:39:45 10° NE daylight
19 May - 13:15:49 10° NNW 13:20:27 25° NNE 13:25:11 10° E daylight
19 May - 14:57:17 10° NW 15:03:01 81° NE 15:08:49 10° SE daylight
19 May - 16:39:53 10° WNW 16:44:12 22° WSW 16:48:30 10° SSW daylight
20 May - 05:30:08 10° SSE 05:33:26 18° ESE 05:36:53 10° ENE daylight
20 May - 07:09:26 10° SW 07:14:22 82° NW 07:19:48 10° NE daylight
20 May - 08:52:47 10° W 08:56:57 24° NNW 09:01:21 10° NNE daylight
20 May - 10:37:51 10° NW 10:40:41 14° N 10:43:34 10° NNE daylight
20 May - 12:20:44 10° NNW 12:24:37 19° NNE 12:28:35 10° ENE daylight
20 May - 14:02:11 10° NNW 14:07:41 48° NE 14:13:16 10° ESE daylight
20 May - 15:44:04 10° NW 15:49:25 42° WSW 15:54:47 10° S daylight
21 May - 06:14:33 10° SSW 06:19:19 52° ESE 06:24:31 10° NE daylight
21 May - 07:56:36 10° WSW 08:01:16 36° NW 08:06:18 10° NNE daylight
21 May - 09:41:23 10° NW 09:44:37 16° NNW 09:47:59 10° NNE daylight
21 May - 11:25:27 10° NNW 11:28:37 15° NNE 11:31:53 10° NE daylight
21 May - 13:07:08 10° NNW 13:12:08 31° NE 13:17:13 10° E daylight
21 May - 14:48:41 10° NW 14:54:25 77° WSW 15:00:11 10° SSE daylight
21 May - 16:32:00 10° WNW 16:35:18 16° WSW 16:38:35 10° SW daylight
22 May - 05:20:29 10° SSE 05:24:31 26° ESE 05:28:51 10° NE daylight
22 May - 07:00:52 10° SW 07:05:49 60° NW 07:11:13 10° NNE daylight
22 May - 08:44:48 10° WNW 08:48:41 20° NNW 08:52:44 10° NNE daylight
22 May - 10:29:43 10° NNW 10:32:33 14° N 10:35:27 10° NNE daylight
22 May - 12:12:06 10° NNW 12:16:23 22° NNE 12:20:46 10° ENE daylight
22 May - 13:53:31 10° NNW 13:59:12 62° NE 14:04:56 10° SE daylight
22 May - 15:35:42 10° NW 15:40:38 30° WSW 15:45:35 10° S daylight
23 May - 04:27:54 10° SE 04:29:59 13° ESE 04:32:06 10° ENE daylight
23 May - 06:05:41 10° SSW 06:10:37 74° ESE 06:16:01 10° NE daylight
23 May - 07:48:26 10° W 07:52:54 29° NW 07:57:39 10° NNE daylight
23 May - 09:33:27 10° NW 09:36:28 15° N 09:39:33 10° NNE daylight
23 May - 11:16:55 10° NNW 11:20:27 17° NNE 11:24:04 10° NE daylight
23 May - 12:58:28 10° NNW 13:03:46 38° NE 13:09:08 10° ESE daylight
23 May - 14:40:09 10° NW 14:45:46 57° WSW 14:51:23 10° SSE daylight
23 May - 16:25:18 10° W 16:26:21 10° W 16:27:22 10° WSW daylight
24 May - 05:11:10 10° S 05:15:41 37° ESE 05:20:35 10° NE daylight
24 May - 06:52:27 10° WSW 06:57:19 45° NW 07:02:35 10° NNE daylight
24 May - 08:36:52 10° WNW 08:40:27 18° NNW 08:44:10 10° NNE daylight
24 May - 10:21:26 10° NNW 10:24:25 14° N 10:27:27 10° NE daylight
24 May - 12:03:25 10° NNW 12:08:06 26° NNE 12:12:52 10° E daylight
24 May - 13:44:54 10° NW 13:50:40 82° NE 13:56:27 10° SE daylight
24 May - 15:27:31 10° WNW 15:31:48 22° WSW 15:36:04 10° SSW daylight
